Fort Polk, LA

12:46 AM CST on December 17, 2017 (GMT -0600)
Polk Army Air Field

Weather History for KPOE - July, 2013

Change the Weather History Date:

Wednesday, July 17, 2013

  Actual Average Record
Temperature  
Mean Temperature 83 °F -  
Max Temperature 93 °F 90 °F 98 °F (2000)
Min Temperature 73 °F 71 °F 69 °F (2014)
Cooling Degree Days 18    
Growing Degree Days 33 (Base 50)    
Moisture  
Dew Point 72 °F    
Average Humidity 76    
Maximum Humidity 100    
Minimum Humidity 44    
Precipitation  
Precipitation 0.00 in - - ()
Sea Level Pressure  
Sea Level Pressure 30.18 in    
Wind  
Wind Speed 6 mph (East)    
Max Wind Speed 12 mph    
Max Gust Speed 16 mph    
Visibility 10 miles    
Events      
Averages and records for this station are not official NWS values.
T = Trace of Precipitation, MM = Missing Value Source: NWS Daily Summary

Daily Weather History Graph

Daily Weather History Graph

Search for Another Location

Airport or City:

Trip Planner

Search our weather history database for the weather conditions in past years. The results will help you decide how hot, cold, wet, or windy it might be!

Date:

Astronomy

Jul. 17, 2013 Rise Set
Actual Time 6:20 AM CDT 8:16 PM CDT
Civil Twilight 5:53 AM CDT 8:43 PM CDT
Nautical Twilight 5:20 AM CDT 9:16 PM CDT
Astronomical Twilight 4:45 AM CDT 9:51 PM CDT
Moon 3:11 PM CDT 1:20 AM CDT
Length of Visible Light 14h 50m
Length of Day
13h 55m
Waxing Gibbous, 67% of the Moon is Illuminated
Jul 17
Waxing Gibbous
Jul 22
Full
Jul 29
Last Quarter
Aug 6
New
Aug 14
First Quarter

Hourly Weather History & Observations

Time (CDT) Temp. Heat Index Dew Point Humidity Pressure Visibility Wind Dir Wind Speed Gust Speed Precip Events Conditions
12:55 AM 73.9 °F - 72.0 °F 93% 30.18 in 10.0 mi East 5.8 mph - N/A   Clear
1:47 AM 73.4 °F - 73.4 °F 100% 30.17 in 10.0 mi East 4.6 mph - N/A   Partly Cloudy
1:55 AM 73.9 °F - 73.0 °F 97% 30.17 in 10.0 mi East 3.5 mph - N/A   Clear
2:55 AM 73.9 °F - 73.0 °F 97% 30.16 in 10.0 mi East 5.8 mph - N/A   Clear
3:15 AM 73.4 °F - 73.4 °F 100% 30.15 in 10.0 mi ENE 5.8 mph - N/A   Partly Cloudy
3:55 AM 73.9 °F - 73.0 °F 97% 30.14 in 10.0 mi ENE 6.9 mph - N/A   Scattered Clouds
4:07 AM 73.4 °F - 73.4 °F 100% 30.14 in 10.0 mi ENE 6.9 mph - N/A   Mostly Cloudy
4:55 AM 75.0 °F - 73.0 °F 94% 30.16 in 9.0 mi East 6.9 mph - N/A   Overcast
5:50 AM 75.2 °F - 73.4 °F 94% 30.17 in 10.0 mi East 4.6 mph - N/A   Overcast
5:55 AM 75.0 °F - 73.0 °F 94% 30.17 in 10.0 mi East 6.9 mph - N/A   Overcast
6:11 AM 75.2 °F - 73.4 °F 94% 30.17 in 10.0 mi East 5.8 mph - N/A   Overcast
6:55 AM 75.0 °F - 73.0 °F 94% 30.18 in 9.0 mi East 4.6 mph - N/A   Overcast
7:52 AM 77.0 °F - 73.4 °F 89% 30.20 in 10.0 mi East 5.8 mph - N/A   Overcast
7:55 AM 77.0 °F - 73.9 °F 90% 30.20 in 10.0 mi East 4.6 mph - N/A   Overcast
8:55 AM 79.0 °F - 73.9 °F 84% 30.23 in 10.0 mi ESE 6.9 mph - N/A   Overcast
9:25 AM 80.6 °F 85.4 °F 73.4 °F 79% 30.22 in 10.0 mi ESE 5.8 mph - N/A   Mostly Cloudy
9:55 AM 82.0 °F 87.4 °F 73.0 °F 74% 30.22 in 10.0 mi East 8.1 mph - N/A   Mostly Cloudy
10:25 AM 82.4 °F 87.2 °F 71.6 °F 70% 30.23 in 10.0 mi East 10.4 mph - N/A   Scattered Clouds
10:34 AM 84.2 °F 89.6 °F 71.6 °F 66% 30.23 in 10.0 mi East 9.2 mph 16.1 mph N/A   Mostly Cloudy
10:55 AM 84.9 °F 90.7 °F 72.0 °F 65% 30.23 in 10.0 mi SE 11.5 mph - N/A   Mostly Cloudy
11:04 AM 86.0 °F 91.8 °F 71.6 °F 62% 30.23 in 10.0 mi East 10.4 mph - N/A   Mostly Cloudy
11:55 AM 87.1 °F 93.6 °F 72.0 °F 61% 30.23 in 10.0 mi Variable 4.6 mph - N/A   Mostly Cloudy
12:55 PM 89.1 °F 95.0 °F 71.1 °F 55% 30.21 in 10.0 mi East 5.8 mph - N/A   Partly Cloudy
1:55 PM 91.0 °F 95.2 °F 68.0 °F 47% 30.20 in 10.0 mi East 10.4 mph 16.1 mph N/A   Scattered Clouds
2:55 PM 93.0 °F 97.9 °F 69.1 °F 45% 30.18 in 10.0 mi East 8.1 mph - N/A   Partly Cloudy
3:55 PM 93.0 °F 97.4 °F 68.0 °F 44% 30.15 in 10.0 mi Variable 3.5 mph - N/A   Partly Cloudy
4:55 PM 93.0 °F 97.4 °F 68.0 °F 44% 30.13 in 10.0 mi East 8.1 mph - N/A   Scattered Clouds
5:55 PM 91.9 °F 95.9 °F 68.0 °F 45% 30.13 in 10.0 mi East 8.1 mph - N/A   Clear
6:55 PM 91.0 °F 95.6 °F 69.1 °F 48% 30.13 in 10.0 mi East 8.1 mph - N/A   Clear
7:55 PM 87.1 °F 90.6 °F 68.0 °F 53% 30.13 in 10.0 mi SE 8.1 mph - N/A   Clear
8:55 PM 81.0 °F 84.9 °F 71.1 °F 72% 30.16 in 10.0 mi SE 5.8 mph - N/A   Clear
9:55 PM 80.1 °F 83.2 °F 70.0 °F 71% 30.15 in 10.0 mi Calm Calm - N/A   Clear
10:55 PM 80.1 °F 83.8 °F 72.0 °F 76% 30.17 in 10.0 mi Calm Calm - N/A   Clear
11:55 PM 77.0 °F - 71.1 °F 82% 30.18 in 10.0 mi East 5.8 mph - N/A   Partly Cloudy